Wind_Speed
19 18 17 16 15 13 11 10 7 5 5 5 6 7 8 9 9 9 7 5 5 5 6 7 7 7 6 6 5 5 5 6 7 7 8 9 10 11 13 14 15 15 16 17 17 18 18 18 18
20 19 18 18 16 14 13 12 9 7 6 6 6 7 8 10 10 9 7 5 4 4 5 5 6 6 5 4 3 3 3 4 4 5 6 7 7 9 10 11 13 14 15 16 17 17 17 17 17
21 20 20 19 17 16 16 13 10 8 6 5 6 7 8 10 10 9 7 6 5 4 4 4 5 4 4 3 3 3 3 3 3 4 4 5 6 8 9 10 12 13 14 15 16 16 16 16 16
20 20 20 19 18 17 17 15 13 10 6 4 5 6 8 9 8 7 7 6 6 4 4 4 4 3 3 3 3 3 3 3 3 4 4 5 6 7 8 9 10 12 13 14 15 16 15 15 15
18 19 19 19 19 19 19 17 14 11 6 3 3 5 7 7 7 6 6 6 6 6 5 5 4 4 3 3 3 2 2 3 3 4 4 5 6 7 8 9 11 12 13 14 15 16 16 16 15
17 16 17 19 21 21 21 19 15 11 7 3 2 4 7 7 7 5 5 6 6 7 7 6 6 5 5 4 4 3 3 3 3 4 4 5 6 7 9 10 11 13 14 15 16 17 17 17 16
15 16 17 21 24 24 24 21 17 12 8 4 0 3 6 7 6 5 6 6 7 8 8 8 8 7 6 6 5 4 4 4 4 4 5 6 6 8 9 10 12 13 14 15 16 17 18 18 17
14 16 20 24 26 27 26 23 18 14 11 6 2 3 5 6 5 5 6 7 9 9 10 10 10 9 8 8 7 6 5 5 5 5 6 6 7 8 9 10 11 12 13 14 15 16 17 17 17
14 17 22 26 28 29 27 24 19 16 13 7 4 4 5 5 5 5 7 8 10 11 11 12 11 11 10 10 9 8 7 6 6 6 6 6 7 7 8 9 10 11 12 13 15 15 16 16 16
14 18 24 28 30 30 27 24 20 17 13 8 5 3 3 3 4 4 6 8 9 10 12 13 12 12 12 11 10 10 9 8 7 7 7 7 7 7 8 9 10 11 12 13 14 15 16 16 16
15 21 27 30 31 30 28 24 20 18 15 10 8 5 2 1 2 3 4 6 8 10 11 12 13 13 12 12 11 11 11 10 9 9 9 9 9 9 9 10 11 12 13 14 15 16 17 18 18
18 24 28 30 30 29 27 24 21 19 17 13 11 7 5 4 4 5 5 6 7 9 11 12 13 15 14 14 13 12 12 12 12 11 11 10 11 11 11 12 13 13 14 15 17 18 20 21 21
21 27 29 29 28 27 26 24 21 19 16 15 12 10 8 7 8 8 7 8 8 9 11 13 15 16 17 16 16 15 15 15 15 14 14 13 13 14 14 14 15 16 17 17 19 20 22 23 25
25 29 29 28 28 27 26 24 21 20 18 17 15 12 10 10 10 10 9 10 11 11 12 14 16 18 19 19 19 19 18 18 18 18 18 17 17 17 17 17 17 18 19 21 22 23 25 25 27
28 29 29 29 28 28 26 24 23 22 20 19 17 16 15 13 13 12 12 12 13 14 15 15 18 19 21 21 22 22 22 21 22 22 22 22 22 21 21 21 20 21 22 23 24 26 28 29 29
29 30 30 30 31 30 28 26 25 24 22 20 19 18 18 17 16 15 15 15 15 15 16 17 20 21 22 24 25 26 26 26 26 26 26 27 28 27 25 25 24 24 25 25 27 29 31 31 31
31 31 31 32 32 32 30 27 27 27 25 23 22 22 22 21 21 19 17 17 17 17 18 20 22 23 25 27 28 29 30 29 29 30 30 31 31 30 29 28 27 28 28 28 29 30 31 32 33
32 32 32 33 34 34 33 29 29 31 29 27 26 26 25 24 23 22 21 19 19 19 20 22 24 25 27 29 30 32 32 32 32 33 32 32 32 31 30 30 29 29 29 30 31 32 32 33 35
34 34 34 34 37 38 37 34 32 32 33 32 31 30 29 27 25 25 24 22 22 22 23 24 25 27 29 31 33 35 36 35 36 36 36 34 31 31 30 30 30 30 31 32 32 32 33 33 34
35 35 34 35 39 42 42 39 35 34 35 34 34 33 31 29 29 28 26 25 24 24 24 25 27 28 30 33 36 39 40 39 40 39 37 33 30 30 29 29 29 30 31 32 33 34 34 35 37
35 35 33 34 39 43 43 42 39 37 36 35 34 34 33 32 31 29 28 27 25 25 26 27 28 31 34 37 39 41 42 42 43 39 36 33 30 28 27 27 29 30 32 34 35 36 37 39 40
34 32 32 34 38 41 43 43 39 38 37 35 35 34 34 33 32 31 30 28 27 27 28 30 32 35 37 39 41 43 44 46 43 38 36 33 30 29 28 29 30 32 34 35 37 39 41 42 43
31 31 33 35 37 39 40 41 38 36 36 35 35 35 35 34 33 31 31 30 30 31 32 35 37 38 39 41 43 45 47 48 43 39 35 33 32 30 30 31 32 34 36 38 41 43 44 46 47
32 33 34 35 36 37 36 38 38 35 35 34 36 36 36 35 34 33 33 33 33 34 36 38 40 40 41 43 45 46 46 44 42 39 36 34 32 32 32 34 36 38 40 43 45 47 49 50 51
33 33 34 34 35 33 32 35 36 34 34 34 35 36 36 35 34 33 34 35 36 37 38 40 41 42 43 44 45 46 45 44 42 40 39 37 37 36 37 39 41 43 45 47 50 51 53 54 56
31 32 33 32 31 29 30 33 33 33 33 33 33 34 34 34 33 33 34 35 36 36 38 39 40 42 43 44 44 43 43 43 43 43 43 42 41 42 43 44 46 48 51 53 54 56 57 59 61
30 31 30 30 28 28 29 31 32 31 30 31 31 32 32 32 32 32 33 33 34 34 36 38 39 41 42 43 44 46 46 45 46 47 47 46 46 47 48 50 52 54 56 57 59 60 62 63 63
31 31 30 30 28 27 28 28 28 28 28 29 30 30 30 30 30 30 31 32 33 34 35 37 39 41 43 45 46 47 48 48 48 49 50 50 51 51 53 56 58 59 60 61 62 63 64 63 64
32 31 31 30 28 27 27 26 26 27 28 28 29 29 29 30 31 32 33 34 35 36 37 39 41 43 46 47 49 49 51 52 52 53 54 54 55 57 58 60 61 62 62 63 63 63 64 64 64
32 32 31 30 28 27 26 26 26 27 28 29 29 30 31 32 32 33 34 36 37 38 40 42 44 46 48 49 51 52 54 55 56 57 57 58 59 59 61 62 62 63 63 63 62 62 62 63 63
Wind_Direction
220 214 211 208 207 212 222 239 250 267 292 333 358 4 7 5 357 346 339 327 314 303 296 291 287 284 281 282 283 285 286 285 284 284 283 280 278 279 279 280 281 283 286 288 289 290 290 289 290
223 218 216 211 211 212 225 240 253 267 291 321 347 2 7 6 1 356 351 350 346 338 320 301 293 290 288 291 299 307 311 308 304 300 298 296 293 291 289 288 289 290 290 290 290 290 290 290 290
226 221 218 211 209 217 228 238 250 263 284 316 345 6 15 10 4 360 1 6 5 356 337 318 311 310 308 313 319 323 329 331 330 324 318 313 309 304 300 298 297 297 296 295 294 294 294 293 292
227 223 218 211 206 216 229 238 247 254 272 317 355 16 21 9 0 1 7 14 17 9 351 339 340 341 336 335 338 343 352 359 355 347 337 328 321 315 310 306 303 301 300 298 298 297 297 297 295
228 223 218 206 204 216 229 236 241 243 259 302 1 32 27 13 5 4 16 27 30 22 9 1 357 356 355 351 349 349 353 352 347 342 335 326 320 314 310 308 305 302 300 299 298 298 299 298 296
229 224 213 200 204 215 226 231 233 236 234 244 6 44 34 25 12 16 36 43 38 28 15 8 2 356 354 351 346 340 336 329 327 323 319 314 311 308 305 303 300 297 296 297 297 297 297 296 295
227 218 201 194 202 215 224 230 231 230 224 227 239 60 48 32 21 30 46 45 39 32 24 18 11 5 2 358 352 342 331 324 316 309 305 302 302 301 300 297 295 294 293 293 293 294 294 295 295
224 212 196 193 202 215 224 227 227 226 226 220 168 84 56 36 33 41 40 37 32 27 24 20 17 10 2 355 346 336 325 319 313 306 302 299 297 296 294 293 292 291 290 290 290 291 292 294 294
223 209 196 197 205 217 223 226 226 226 225 211 168 99 66 52 46 42 38 36 32 27 25 21 18 12 3 355 346 336 324 313 306 301 296 294 293 292 292 291 290 289 288 288 288 289 290 292 292
223 205 198 202 210 219 224 227 226 227 223 209 175 135 93 58 30 27 28 29 24 22 21 16 11 6 360 353 345 336 325 313 302 293 288 285 284 285 287 291 292 291 290 289 289 289 288 288 288
220 203 204 207 214 221 225 228 230 231 228 218 195 184 193 278 336 340 353 6 8 7 5 4 1 357 353 348 342 334 326 314 302 291 285 282 280 281 284 289 291 291 290 290 291 290 289 288 285
218 208 210 213 219 223 227 230 234 237 235 227 210 205 212 241 271 297 317 332 343 348 352 354 349 344 341 335 332 328 322 314 305 295 287 283 279 278 282 287 289 290 291 292 292 291 289 287 286
216 211 213 219 223 225 229 232 238 242 244 241 227 218 220 236 263 280 300 312 322 331 336 343 341 337 332 326 323 320 317 310 304 298 292 286 282 282 283 284 287 289 290 290 292 292 292 290 288
215 216 218 223 225 228 232 236 239 243 253 252 240 230 230 238 257 271 286 295 303 314 321 329 332 332 329 320 316 314 311 305 299 296 294 291 288 286 285 287 288 289 291 292 292 292 292 293 292
220 221 225 227 228 231 234 237 240 248 257 256 248 243 243 249 255 267 279 287 295 302 309 316 320 322 321 316 310 306 305 301 298 295 291 289 287 285 285 284 286 289 290 291 291 291 291 291 289
225 226 227 229 231 234 236 236 243 251 258 257 251 248 251 256 258 264 272 280 288 296 300 306 312 315 313 310 308 304 301 301 296 293 290 287 286 282 282 283 284 285 287 288 290 290 289 288 288
228 229 230 231 234 236 238 237 242 251 257 257 254 253 254 257 261 266 270 276 283 292 297 302 306 309 307 305 304 302 297 295 294 291 288 287 284 281 281 282 283 283 284 286 289 290 289 289 288
232 232 232 232 236 238 242 242 241 248 255 258 258 257 257 259 263 266 269 273 280 287 293 298 301 304 305 304 303 302 298 294 290 290 288 283 280 278 278 279 281 281 283 287 289 290 290 290 289
232 232 232 232 236 240 244 246 245 247 254 258 261 261 262 262 261 262 265 272 277 284 289 293 298 301 301 301 301 300 298 293 289 288 289 282 279 277 276 276 281 284 286 289 291 290 291 292 292
232 232 231 230 234 239 244 247 249 250 253 258 261 262 263 262 259 261 265 271 275 280 285 290 293 295 296 296 296 296 295 292 290 289 287 285 281 280 277 279 284 288 290 293 295 296 296 297 298
233 234 232 230 231 238 243 247 250 252 254 258 261 262 261 261 260 260 263 268 271 276 283 287 291 292 292 292 292 291 291 289 288 289 291 290 289 287 284 285 290 292 295 295 298 299 300 300 300
233 234 234 232 232 236 243 246 247 250 253 257 259 261 261 261 260 261 263 265 270 276 281 285 287 288 289 289 288 287 288 285 285 291 295 295 294 296 292 292 294 296 297 297 301 302 302 301 300
233 233 234 234 235 237 243 248 249 249 251 253 255 258 259 260 260 261 263 266 271 275 280 283 285 286 287 287 286 286 286 286 285 295 302 302 298 296 298 297 298 298 299 300 302 303 302 301 300
229 231 234 235 237 239 242 249 252 250 250 250 253 256 258 260 261 262 265 268 271 275 278 281 283 283 285 285 286 286 287 286 292 302 310 311 306 301 300 300 299 301 303 303 302 302 301 301 299
227 228 232 236 239 241 242 247 252 253 251 251 252 254 257 259 261 263 265 268 270 272 275 277 279 280 283 285 285 289 292 298 305 310 312 310 307 305 303 302 301 302 302 302 301 300 300 299 298
226 228 232 236 239 240 241 246 250 253 252 251 252 253 255 257 260 262 264 267 269 270 272 275 277 280 284 287 289 296 300 304 307 311 311 309 306 303 301 301 301 300 300 300 299 298 297 297 296
223 227 231 235 237 238 241 244 247 250 251 250 250 253 255 257 259 262 265 267 268 269 272 275 278 282 286 289 292 297 302 306 308 308 308 307 304 302 300 300 299 299 298 297 297 296 296 295 294
223 226 228 233 236 238 241 243 245 248 250 250 251 253 256 258 260 263 265 266 269 272 275 277 281 284 288 292 294 298 301 303 304 305 305 303 302 301 299 299 298 297 296 295 295 295 294 294 294
222 227 231 234 237 240 243 245 246 250 251 253 255 258 260 262 265 267 269 271 274 277 280 282 286 288 290 293 295 297 299 301 302 303 303 303 301 299 298 297 297 296 295 295 295 295 294 294 294
225 229 232 235 239 242 246 249 249 253 255 257 260 262 264 266 268 270 272 275 277 280 283 285 288 290 291 293 294 296 298 299 300 301 301 301 300 299 298 297 297 296 296 296 295 294 294 294 295
Height
5879 5881 5884 5886 5889 5890 5890 5892 5892 5893 5894 5894 5893 5892 5892 5892 5891 5893 5891 5889 5888 5888 5888 5888 5888 5888 5888 5888 5888 5888 5888 5889 5889 5890 5891 5892 5893 5894 5894 5895 5895 5896 5897 5897 5898 5898 5898 5898 5899
5876 5879 5882 5884 5886 5888 5889 5890 5891 5892 5893 5893 5892 5891 5891 5890 5889 5889 5888 5888 5887 5887 5887 5887 5887 5887 5886 5886 5886 5886 5887 5887 5888 5888 5889 5890 5891 5891 5892 5893 5893 5894 5894 5895 5895 5895 5895 5896 5896
5874 5877 5879 5882 5884 5886 5887 5889 5890 5891 5892 5892 5891 5891 5890 5889 5889 5889 5888 5887 5887 5887 5887 5887 5887 5886 5886 5885 5885 5885 5886 5886 5886 5887 5887 5888 5889 5889 5890 5890 5891 5891 5892 5892 5892 5892 5892 5893 5893
5871 5874 5877 5880 5883 5884 5885 5888 5889 5890 5891 5891 5891 5890 5889 5889 5889 5889 5888 5887 5887 5887 5887 5887 5886 5886 5886 5885 5885 5885 5885 5885 5885 5886 5886 5886 5887 5887 5888 5888 5889 5889 5889 5889 5889 5889 5889 5890 5890
5869 5872 5874 5878 5881 5882 5884 5886 5887 5889 5890 5890 5890 5889 5889 5890 5889 5889 5888 5888 5888 5888 5887 5887 5886 5886 5886 5885 5885 5885 5885 5885 5885 5885 5885 5885 5885 5886 5886 5886 5886 5886 5886 5886 5886 5886 5886 5887 5887
5867 5869 5872 5876 5878 5880 5881 5883 5886 5888 5889 5890 5889 5889 5889 5889 5890 5890 5889 5889 5888 5888 5888 5887 5887 5886 5885 5885 5885 5884 5884 5884 5884 5884 5884 5884 5884 5884 5884 5884 5884 5884 5884 5883 5883 5883 5883 5883 5884
5866 5867 5870 5873 5875 5877 5878 5881 5884 5886 5887 5888 5888 5888 5888 5889 5890 5890 5889 5889 5889 5888 5888 5887 5886 5886 5885 5885 5884 5884 5884 5883 5883 5883 5883 5882 5882 5882 5882 5882 5881 5881 5881 5880 5880 5879 5879 5880 5880
5863 5866 5868 5870 5873 5874 5876 5878 5881 5884 5885 5886 5887 5887 5888 5889 5890 5890 5890 5889 5889 5888 5888 5887 5886 5885 5885 5884 5884 5883 5883 5882 5882 5882 5882 5881 5881 5880 5880 5880 5879 5878 5878 5877 5877 5876 5876 5876 5876
5861 5865 5866 5868 5870 5871 5873 5876 5879 5882 5884 5885 5885 5886 5888 5889 5889 5889 5889 5889 5889 5888 5887 5887 5886 5885 5885 5884 5883 5883 5882 5882 5881 5881 5880 5880 5879 5879 5878 5877 5877 5876 5875 5874 5873 5873 5872 5873 5873
5859 5862 5864 5865 5867 5868 5871 5874 5877 5880 5882 5883 5883 5885 5886 5888 5888 5889 5889 5889 5888 5888 5887 5887 5886 5885 5884 5884 5883 5883 5882 5881 5880 5880 5879 5878 5877 5877 5876 5875 5874 5873 5872 5871 5870 5870 5869 5869 5869
5857 5859 5860 5862 5863 5865 5868 5872 5875 5878 5880 5881 5882 5883 5885 5886 5887 5888 5889 5888 5888 5887 5887 5886 5886 5885 5884 5884 5883 5882 5881 5880 5879 5878 5877 5876 5875 5874 5873 5872 5871 5870 5869 5868 5867 5866 5866 5865 5865
5855 5856 5857 5859 5861 5863 5867 5870 5873 5876 5878 5879 5880 5881 5882 5884 5886 5887 5887 5887 5887 5887 5886 5886 5885 5885 5884 5883 5882 5881 5880 5878 5877 5876 5875 5874 5872 5871 5870 5869 5868 5867 5866 5865 5864 5863 5862 5861 5860
5851 5853 5855 5856 5859 5862 5865 5868 5871 5874 5876 5876 5877 5879 5881 5882 5884 5885 5886 5886 5886 5886 5886 5885 5885 5884 5883 5882 5880 5879 5878 5876 5875 5873 5872 5871 5869 5868 5867 5866 5865 5864 5862 5861 5860 5859 5857 5856 5855
5847 5849 5851 5854 5857 5860 5863 5866 5869 5871 5873 5874 5876 5877 5879 5880 5882 5883 5884 5884 5884 5884 5884 5883 5883 5882 5881 5880 5878 5877 5875 5873 5872 5870 5869 5867 5866 5864 5863 5862 5860 5859 5858 5857 5856 5854 5853 5851 5849
5843 5846 5849 5852 5854 5856 5860 5863 5866 5868 5870 5871 5873 5874 5876 5878 5879 5881 5881 5882 5882 5882 5881 5881 5880 5879 5878 5876 5875 5873 5871 5869 5868 5866 5864 5862 5861 5859 5858 5857 5855 5854 5853 5852 5850 5849 5847 5846 5844
5840 5843 5846 5850 5851 5853 5858 5861 5863 5864 5865 5867 5869 5870 5872 5874 5876 5878 5879 5879 5879 5879 5878 5878 5876 5875 5874 5872 5870 5869 5867 5865 5863 5860 5858 5857 5855 5853 5852 5851 5849 5848 5847 5845 5844 5843 5841 5839 5838
5836 5839 5843 5846 5847 5849 5853 5857 5859 5859 5861 5863 5864 5866 5868 5870 5872 5874 5875 5875 5875 5875 5875 5874 5873 5871 5869 5867 5865 5863 5860 5858 5856 5853 5851 5850 5848 5846 5845 5844 5842 5841 5840 5838 5837 5835 5834 5832 5830
5833 5835 5838 5841 5843 5845 5847 5852 5855 5855 5856 5858 5860 5861 5863 5865 5867 5869 5870 5871 5871 5871 5870 5869 5868 5866 5864 5862 5859 5857 5854 5851 5848 5846 5844 5841 5839 5837 5836 5835 5834 5833 5832 5831 5829 5828 5826 5824 5822
5826 5830 5833 5837 5838 5839 5842 5845 5849 5850 5851 5853 5855 5856 5858 5860 5862 5863 5864 5865 5866 5866 5865 5864 5863 5861 5859 5856 5854 5851 5847 5844 5841 5837 5834 5831 5830 5829 5827 5827 5826 5825 5823 5823 5821 5819 5818 5816 5814
5819 5823 5828 5833 5833 5834 5835 5838 5843 5845 5847 5848 5850 5851 5852 5854 5856 5857 5858 5859 5860 5860 5859 5859 5857 5856 5854 5850 5848 5845 5841 5838 5833 5828 5824 5820 5820 5821 5820 5819 5818 5816 5815 5814 5812 5810 5809 5807 5805
5812 5817 5821 5825 5827 5827 5829 5833 5837 5840 5841 5843 5844 5845 5846 5848 5849 5850 5851 5852 5853 5853 5853 5852 5851 5849 5847 5844 5840 5837 5833 5828 5825 5821 5818 5815 5813 5813 5812 5811 5809 5808 5807 5805 5803 5801 5799 5797 5795
5806 5810 5813 5816 5819 5820 5823 5825 5831 5834 5835 5837 5838 5838 5839 5840 5842 5844 5845 5846 5846 5846 5846 5845 5844 5842 5839 5837 5833 5829 5824 5819 5815 5813 5810 5808 5806 5805 5804 5803 5801 5800 5798 5796 5794 5792 5790 5787 5785
5800 5802 5805 5808 5811 5814 5816 5819 5825 5828 5829 5831 5831 5831 5832 5834 5835 5837 5838 5839 5839 5839 5838 5837 5836 5834 5832 5829 5826 5821 5816 5811 5807 5804 5802 5799 5799 5798 5796 5795 5794 5792 5790 5787 5785 5782 5779 5776 5773
5792 5795 5798 5801 5805 5809 5812 5814 5817 5821 5823 5824 5825 5825 5826 5827 5828 5830 5831 5832 5832 5832 5831 5830 5828 5826 5824 5821 5817 5812 5807 5802 5798 5797 5795 5793 5791 5790 5789 5787 5785 5783 5781 5778 5775 5772 5768 5765 5761
5786 5790 5793 5796 5799 5804 5807 5808 5811 5813 5815 5817 5817 5818 5819 5820 5821 5823 5824 5825 5825 5825 5824 5822 5820 5818 5816 5813 5808 5802 5798 5794 5791 5789 5788 5786 5785 5783 5781 5779 5776 5774 5771 5768 5764 5760 5756 5752 5748
5781 5785 5789 5792 5795 5799 5801 5802 5805 5806 5808 5809 5810 5811 5812 5813 5815 5816 5817 5818 5818 5817 5816 5815 5813 5810 5807 5804 5800 5795 5791 5788 5784 5783 5781 5779 5777 5774 5772 5769 5766 5763 5759 5756 5752 5748 5744 5739 5734
5777 5781 5785 5787 5790 5792 5794 5796 5798 5799 5801 5802 5804 5805 5806 5807 5808 5809 5810 5811 5810 5810 5809 5807 5805 5802 5799 5795 5792 5788 5784 5781 5778 5776 5773 5771 5768 5765 5761 5758 5755 5751 5747 5743 5739 5734 5730 5725 5719
5774 5777 5780 5782 5784 5786 5789 5791 5793 5794 5795 5796 5798 5799 5800 5801 5802 5803 5803 5803 5803 5802 5800 5798 5796 5793 5790 5786 5783 5779 5776 5773 5770 5767 5764 5761 5758 5754 5751 5747 5743 5738 5734 5729 5724 5719 5714 5709 5703
5769 5772 5775 5777 5780 5782 5784 5788 5788 5789 5790 5791 5792 5793 5794 5795 5796 5796 5796 5795 5794 5793 5791 5789 5787 5784 5780 5777 5773 5770 5766 5763 5759 5756 5753 5749 5746 5742 5738 5733 5728 5724 5719 5714 5709 5703 5698 5693 5687
5764 5767 5770 5773 5775 5778 5780 5784 5783 5784 5785 5786 5786 5787 5787 5788 5788 5788 5788 5787 5786 5785 5783 5780 5778 5774 5771 5767 5763 5759 5755 5752 5748 5744 5741 5737 5732 5728 5723 5719 5714 5708 5703 5698 5693 5687 5682 5677 5672